SCP
0 0 0 0 0 0 0 0 0 0 0 0 -0 0 -0 -0 0 0 -0 -0 -0 -0 -0 0 0 0 0 -0 -0 0 0 0 0 0 0 0 0 0 0 0 0 0 0 0
0 0 0 0 0 0 0 0 0 0 0 0 0 0 0 0 0 0 -0 -0 -0 -0 -0 -0 -0 0 0 -0 -0 0 0 0 0 0 0 0 -0 0 0 0 0 0 0 0
0 0 0 -0 0 0 0 0 0 0 0 0 0 0 0 0 0 0 0 0 0 -0 -0 -0 -0 0 0 -0 -0 -0 0 0 0 0 0 0 0 0 0 0 0 0 0 0
0 0 0 0 0 0 0 0 0 0 0 0 0 -0 0 0 0 0 0 0 0 0 0 -0 0 0 -0 0 -0 -0 0 0 0 0 0 0 0 0 0 0 0 0 0 0
0 0 0 0 0 0 0 0 0 0 0 0 0 0 0 0 0 0 0 0 0 0 0 0 0 0 0 0 0 0 0 0 0 0 0 0 0 0 0 0 0 0 0 0
0 0 0 0 0 0 0 0 0 0 0 0 0 0 -0 0 0 0 0 0 0 0 0 0 0 0 0 0 0 0 0 0 0 0 0 0 0 0 -0 -0 -0 -0 -0 -0
0 0 0 0 0 0 0 0 0 0 0 0 0 0 0 0 0 0 0 0 0 0 0 0 0 0 0 0 -0 0 0 0 0 0 -0 -0 -0 -0 -0 0 -0 -0 -0 -0
0 0 0 0 0 0 0 0 0 0 0 0 0 0 0 0 0 0 0 0 0 0 0 0 0 0 0 0 0 0 0 0 0 0 -0 -0 0 -0 -0 0 0 -0 -0 -0
0 0 0 0 0 0 0 0 0 0 0 0 0 0 0 0 0 0 0 0 0 0 0 0 0 0 0 0 0 0 0 0 0 0 0 0 0 -0 -0 -0 -0 -0 -0 -0
0 0 0 0 0 0 0 0 0 0 0 0 0 0 0 0 0 0 0 0 0 0 0 0 0 0 0 0 0 0 0 0 0 0 0 0 0 0 0 0 -0 -0 -0 -0
0 0 0 0 0 0 0 0 0 0 0 0 0 0 0 0 0 0 0 0 0 0 0 0 0 0 0 0 0 0 0 0 0 0 0 0 0 0 0 0 0 0 0 0
0 0 0 0 -0 0 0 0 0 0 0 0 0 0 0 0 0 0 0 0 0 0 0 0 0 0 0 0 0 0 0 0 0 0 0 0 0 0 0 0 0 0 0 0
0 0 0 0 0 0 0 0 0 0 0 0 0 0 0 0 0 0 0 0 0 0 0 0 0 0 0 0 0 0 0 0 0 0 0 0 0 0 0 -0 -0 -0 -0 0
0 0 0 0 0 0 0 0 0 0 0 0 0 0 0 0 0 0 0 0 0 0 0 0 0 0 0 0 0 0 0 0 0 0 0 0 0 0 0 0 0 -0 -0 0
0 0 0 0 0 0 0 0 0 0 0 0 0 0 0 0 0 0 0 0 0 0 0 0 0 0 0 0 0 0 0 0 0 0 0 0 0 0 0 0 0 -0 0 0
0 0 0 0 0 0 0 0 0 0 0 0 0 0 0 0 0 0 0 0 0 0 0 0 0 0 0 0 0 0 0 0 0 0 0 0 0 0 0 0 0 0 0 0
0 0 0 0 0 0 0 0 0 0 0 0 0 0 0 0 0 0 0 0 0 0 0 0 0 0 0 0 0 0 0 0 0 0 0 0 0 0 0 0 0 0 0 0
0 0 0 0 0 0 0 0 0 0 0 0 0 0 0 0 0 0 0 0 0 0 0 0 0 0 0 0 0 0 0 0 0 0 0 0 0 0 0 0 0 0 0 0
0 0 0 0 0 0 0 0 0 0 0 0 0 0 0 0 0 0 0 0 0 0 0 0 0 0 0 0 0 0 0 0 0 0 0 0 0 0 0 0 0 0 0 0
0 0 0 0 0 0 0 0 0 0 0 0 0 0 0 0 0 0 0 0 0 0 0 0 0 0 0 0 0 0 0 0 0 0 0 0 0 0 0 0 0 0 0 0
0 0 0 0 0 0 0 0 0 0 0 0 0 0 0 0 0 0 0 0 0 0 0 0 0 0 0 0 0 0 0 0 0 0 0 0 0 0 0 0 0 0 0 0
0 0 0 0 0 0 0 0 0 0 0 0 0 0 0 0 0 0 0 0 0 0 0 0 0 0 0 0 0 0 0 0 0 0 0 0 0 0 0 0 0 0 0 0
0 0 0 0 0 0 0 0 0 0 0 0 0 0 0 0 0 0 0 0 0 0 0 0 0 0 0 0 0 0 0 0 0 0 0 0 0 0 0 0 0 0 0 0
0 0 0 0 0 0 0 0 0 0 0 0 0 0 0 0 0 0 0 0 0 0 0 0 0 0 0 0 0 0 0 0 0 0 0 0 0 0 0 0 0 0 0 0
0 0 0 0 0 0 0 0 0 0 0 0 0 0 0 0 0 0 0 0 0 0 0 0 0 0 0 0 0 0 0 0 0 0 0 0 0 0 0 0 0 0 0 0
0 0 0 0 0 0 0 0 0 0 0 0 0 0 0 0 0 0 0 0 0 0 0 0 0 0 0 0 0 0 0 0 0 0 0 0 0 0 0 0 0 0 0 0
0 0 0 0 0 0 0 0 0 0 0 0 0 0 0 0 0 0 0 0 0 0 0 0 0 0 0 0 0 0 0 0 0 0 0 0 0 0 0 0 0 0 0 0
Wind_Speed_500mb
9 19 21 27 17 24 19 18 17 16 18 15 9 9 7 17 26 41 56 70 72 63 59 57 48 41 32 23 23 23 18 11 4 7 19 24 24 23 22 20 18 20 20 23
14 19 25 23 35 32 35 6 2 11 10 14 14 16 12 15 38 50 58 75 80 71 59 60 58 47 38 31 26 26 22 16 11 9 17 27 27 26 22 23 20 19 19 18
9 11 13 34 32 28 20 10 19 17 19 14 11 16 28 30 36 49 58 64 85 82 70 62 62 53 46 36 29 27 24 23 18 13 18 24 29 28 25 23 22 21 19 15
6 11 18 10 21 33 39 24 15 7 16 21 26 40 32 21 19 41 54 54 75 87 75 65 59 56 47 41 34 29 26 27 24 18 21 24 27 29 29 27 24 23 21 18
10 8 9 3 10 18 18 25 29 26 10 18 20 12 30 25 29 37 51 49 56 81 84 71 64 60 56 51 42 34 31 30 27 22 23 24 26 27 28 29 27 23 19 17
6 13 21 11 12 12 11 16 20 34 19 18 27 7 19 41 38 44 42 55 43 61 83 79 69 66 63 59 54 46 38 32 29 26 25 25 25 25 25 25 24 25 25 23
4 9 12 10 17 33 17 15 24 55 50 37 15 44 52 41 40 32 37 50 52 49 62 77 78 74 73 66 65 55 44 36 34 33 30 27 27 28 27 26 26 25 23 22
4 7 17 14 14 24 15 20 25 54 54 63 72 60 55 43 32 26 27 38 49 44 53 65 80 81 82 77 62 62 55 47 42 38 35 35 36 34 32 31 29 28 27 25
19 12 7 54 39 60 42 34 31 50 54 61 59 60 46 47 45 34 31 33 35 39 45 58 66 86 90 78 69 66 65 59 53 46 44 42 44 43 41 39 37 34 32 30
8 11 12 50 30 49 34 34 35 26 29 40 46 48 49 49 39 35 30 24 32 47 52 60 62 75 93 81 77 69 72 69 63 59 55 51 50 51 50 49 47 44 42 40
5 4 3 23 62 46 55 31 30 31 24 31 39 41 39 34 36 37 32 29 35 41 46 54 60 68 83 93 85 84 73 75 73 70 65 60 58 57 60 56 52 47 42 39
16 22 22 30 66 65 51 64 46 28 29 41 37 30 27 31 36 33 24 25 33 47 51 51 58 72 79 85 93 93 88 81 83 80 78 74 68 64 61 57 52 51 51 54
11 49 57 48 63 76 69 45 33 26 33 37 35 29 24 20 24 28 26 22 28 32 44 55 59 67 77 82 84 98 100 89 87 87 85 88 85 79 72 64 61 67 69 72
55 58 29 43 40 70 68 52 41 35 35 36 30 32 31 26 20 10 14 24 16 25 39 42 44 49 56 71 78 87 99 101 95 91 91 88 93 90 82 75 70 68 67 72
52 58 69 58 33 55 56 52 46 40 36 32 26 16 23 27 30 29 17 16 17 19 38 36 38 43 48 55 67 80 94 99 99 96 96 94 90 92 92 85 79 71 72 74
44 42 53 51 58 61 65 53 49 42 33 22 19 19 17 23 20 24 29 28 25 20 15 30 35 41 41 41 59 74 86 91 97 94 92 97 98 96 92 88 83 84 86 82
31 42 58 67 59 57 59 52 43 36 27 24 20 19 26 25 30 21 17 19 28 21 18 18 22 51 40 43 49 66 78 86 85 90 91 90 90 91 93 90 88 80 70 53
26 39 42 56 52 50 42 36 31 27 22 17 18 20 20 32 34 34 32 28 23 20 33 33 25 59 71 60 54 57 63 70 75 86 87 85 80 77 77 74 61 49 32 20
25 27 26 31 37 38 36 33 28 23 18 12 5 7 2 8 19 28 27 24 26 20 18 23 13 13 19 32 45 53 56 57 59 73 75 74 66 59 56 48 38 41 38 25
41 39 37 48 51 49 48 45 42 34 27 19 9 7 8 10 11 12 13 12 11 17 17 13 13 16 17 25 36 44 43 41 47 52 52 45 45 50 62 59 45 32 23 13
33 35 43 42 41 41 38 33 27 23 20 19 14 14 13 11 13 10 11 11 14 5 13 20 19 24 30 37 40 40 38 44 44 46 54 64 64 55 42 31 30 22 30 35
34 32 31 31 27 26 23 20 18 15 8 7 7 6 7 8 8 15 15 25 37 39 36 29 33 38 34 42 47 55 58 61 63 54 45 42 45 52 47 47 54 53 59 50
45 40 32 27 21 14 11 11 12 7 2 4 8 5 8 13 9 12 20 19 24 20 17 23 31 40 43 46 48 38 32 36 46 55 51 59 59 57 61 64 63 60 52 50
33 32 29 26 15 6 7 10 13 14 10 17 20 20 19 23 24 25 24 28 32 26 18 17 34 33 41 47 48 55 60 61 57 52 48 60 64 64 67 67 65 63 60 58
33 31 30 28 24 21 15 5 6 4 7 23 35 41 34 30 19 19 14 14 26 20 16 23 26 29 27 34 46 47 52 52 52 63 79 80 77 76 72 69 67 66 63 57
27 28 29 29 28 25 22 16 13 8 4 12 35 45 45 35 21 22 21 13 24 23 19 9 6 12 10 17 23 39 48 59 75 84 82 78 74 75 74 72 69 64 59 53
26 27 27 25 23 23 21 17 15 11 7 2 8 21 31 32 27 29 30 29 29 29 34 25 25 23 21 24 35 52 70 85 88 84 77 76 76 76 74 71 66 59 52 46
Wind_Direction_500mb
198 202 191 212 196 180 191 195 175 215 208 229 180 179 209 185 186 192 201 208 202 200 206 205 204 204 203 198 204 212 211 217 222 208 190 184 181 182 173 160 155 152 143 143
217 207 195 215 217 194 208 152 107 155 231 207 178 174 226 187 188 199 203 210 211 206 205 206 207 205 203 200 200 211 212 211 217 216 189 186 185 185 182 181 174 167 160 151
227 182 127 245 208 193 204 190 171 198 214 155 179 195 222 235 217 220 214 210 216 209 208 207 204 203 204 199 199 208 205 208 217 212 190 184 191 195 195 195 193 191 190 199
158 112 208 278 203 187 199 204 194 179 178 181 204 225 242 231 270 236 225 214 218 219 213 212 208 204 204 201 202 202 203 206 213 211 194 188 188 191 197 203 205 207 208 213
152 211 299 234 153 145 159 227 198 205 154 191 205 230 254 235 268 278 246 230 226 222 218 212 207 202 202 202 203 202 203 203 210 216 203 195 190 191 193 197 200 198 191 176
175 178 219 191 199 150 76 246 196 197 192 165 143 188 234 228 253 278 248 237 225 224 223 215 212 205 202 203 203 203 201 201 203 210 211 200 189 183 179 178 176 174 170 166
174 228 275 248 149 137 154 233 185 192 203 174 185 220 233 247 262 270 256 241 230 224 223 220 210 207 205 204 206 206 196 199 203 205 206 199 190 184 177 175 176 175 174 174
123 190 245 170 133 161 197 217 215 204 206 202 217 228 230 238 242 254 244 224 224 223 224 220 212 209 209 207 207 207 202 200 204 204 202 199 195 188 186 188 187 183 181 181
189 203 227 172 174 198 186 195 196 207 208 215 220 224 223 240 237 246 214 209 218 230 222 218 211 211 211 211 207 206 206 203 207 205 204 201 201 197 197 197 196 196 199 203
130 207 202 192 200 204 192 192 213 219 210 211 224 232 233 239 236 219 216 197 222 218 219 219 216 212 217 213 207 207 207 205 207 212 209 207 207 206 206 206 207 209 216 225
228 314 91 219 202 203 208 201 192 189 207 232 226 227 231 238 227 229 239 231 223 225 226 225 225 219 214 217 211 209 210 209 207 211 214 213 214 215 215 217 219 223 230 235
221 175 168 203 203 207 210 215 211 219 215 215 219 230 238 245 243 243 240 251 248 234 227 225 227 223 217 218 215 213 211 212 212 210 213 218 217 220 224 229 233 236 241 249
230 188 195 204 209 211 214 205 204 223 207 202 219 226 235 212 211 225 232 239 245 245 243 229 221 224 223 221 220 217 216 215 216 216 216 220 222 222 223 226 234 242 250 257
287 195 183 201 209 213 215 215 216 223 209 208 211 209 206 199 204 243 277 242 246 250 243 228 223 227 229 224 225 226 221 220 218 218 220 222 226 227 228 230 232 241 251 259
258 201 206 199 198 187 191 185 184 186 192 188 190 201 213 228 244 258 267 245 239 263 234 229 232 238 238 235 233 229 224 222 223 225 224 225 228 231 233 235 239 242 251 258
222 198 178 172 175 170 172 181 179 186 190 195 211 223 239 252 242 249 248 267 248 263 279 224 228 239 230 235 233 233 233 230 223 225 227 229 231 233 236 237 241 246 251 259
172 131 143 142 159 160 170 177 179 178 192 215 229 230 235 250 243 249 259 254 252 258 273 277 238 236 242 258 250 237 231 231 226 226 230 231 231 234 237 239 239 243 251 257
112 124 131 141 147 148 155 166 176 186 207 238 260 268 257 247 244 249 253 278 262 248 278 281 258 234 240 252 241 232 228 228 224 221 226 232 234 234 236 236 232 232 232 191
123 108 121 121 134 142 149 156 163 167 167 164 139 70 67 248 249 239 236 255 229 217 211 257 276 241 225 222 218 215 215 217 217 220 220 223 223 224 225 220 195 161 146 145
89 103 118 119 113 117 121 124 126 129 122 111 115 105 92 81 85 159 158 186 189 198 181 180 165 146 165 185 196 198 199 198 200 200 203 205 198 179 158 148 146 148 147 156
78 103 101 109 103 104 103 113 122 109 128 124 93 74 75 53 66 138 151 126 109 162 148 138 161 170 164 165 164 159 174 161 162 159 150 145 142 146 154 160 167 172 149 126
94 93 113 116 114 108 111 112 100 94 105 111 73 100 80 83 89 85 120 137 130 120 112 126 149 157 162 161 152 148 147 145 148 150 163 188 206 192 173 161 148 134 133 134
84 89 92 91 90 89 100 80 46 44 91 263 275 226 167 148 155 117 106 134 183 170 151 161 163 160 160 164 161 159 164 164 171 172 176 179 171 161 151 145 140 141 141 142
69 69 70 64 62 56 3 329 276 293 290 221 220 201 177 161 153 148 137 129 128 104 108 145 178 173 170 171 164 163 166 168 170 161 167 165 156 150 143 143 143 142 141 141
60 61 59 55 56 57 53 10 327 348 277 226 213 195 198 198 198 200 196 163 145 120 68 83 125 171 186 185 181 184 178 173 169 165 159 152 148 147 147 147 145 144 141 136
60 62 60 56 52 45 40 29 26 57 100 205 212 206 201 210 226 200 193 177 199 197 201 184 130 107 148 164 172 175 167 164 160 156 153 149 148 148 149 147 143 140 137 132
69 65 61 48 42 33 27 28 28 31 51 104 209 219 220 224 207 195 193 195 194 188 193 199 198 200 209 211 179 166 163 161 160 156 153 151 151 149 146 143 141 138 132 127
Wind_Speed_850mb
9 19 21 27 17 24 19 18 17 16 18 15 9 9 7 17 26 41 56 70 72 63 59 57 48 41 32 23 23 23 18 11 4 7 19 24 24 23 22 20 18 20 20 23
14 19 25 23 35 32 35 6 2 11 10 14 14 16 12 15 38 50 58 75 80 71 59 60 58 47 38 31 26 26 22 16 11 9 17 27 27 26 22 23 20 19 19 18
9 11 13 34 32 28 20 10 19 17 19 14 11 16 28 30 36 49 58 64 85 82 70 62 62 53 46 36 29 27 24 23 18 13 18 24 29 28 25 23 22 21 19 15
6 11 18 10 21 33 39 24 15 7 16 21 26 40 32 21 19 41 54 54 75 87 75 65 59 56 47 41 34 29 26 27 24 18 21 24 27 29 29 27 24 23 21 18
10 8 9 3 10 18 18 25 29 26 10 18 20 12 30 25 29 37 51 49 56 81 84 71 64 60 56 51 42 34 31 30 27 22 23 24 26 27 28 29 27 23 19 17
6 13 21 11 12 12 11 16 20 34 19 18 27 7 19 41 38 44 42 55 43 61 83 79 69 66 63 59 54 46 38 32 29 26 25 25 25 25 25 25 24 25 25 23
4 9 12 10 17 33 17 15 24 55 50 37 15 44 52 41 40 32 37 50 52 49 62 77 78 74 73 66 65 55 44 36 34 33 30 27 27 28 27 26 26 25 23 22
4 7 17 14 14 24 15 20 25 54 54 63 72 60 55 43 32 26 27 38 49 44 53 65 80 81 82 77 62 62 55 47 42 38 35 35 36 34 32 31 29 28 27 25
19 12 7 54 39 60 42 34 31 50 54 61 59 60 46 47 45 34 31 33 35 39 45 58 66 86 90 78 69 66 65 59 53 46 44 42 44 43 41 39 37 34 32 30
8 11 12 50 30 49 34 34 35 26 29 40 46 48 49 49 39 35 30 24 32 47 52 60 62 75 93 81 77 69 72 69 63 59 55 51 50 51 50 49 47 44 42 40
5 4 3 23 62 46 55 31 30 31 24 31 39 41 39 34 36 37 32 29 35 41 46 54 60 68 83 93 85 84 73 75 73 70 65 60 58 57 60 56 52 47 42 39
16 22 22 30 66 65 51 64 46 28 29 41 37 30 27 31 36 33 24 25 33 47 51 51 58 72 79 85 93 93 88 81 83 80 78 74 68 64 61 57 52 51 51 54
11 49 57 48 63 76 69 45 33 26 33 37 35 29 24 20 24 28 26 22 28 32 44 55 59 67 77 82 84 98 100 89 87 87 85 88 85 79 72 64 61 67 69 72
55 58 29 43 40 70 68 52 41 35 35 36 30 32 31 26 20 10 14 24 16 25 39 42 44 49 56 71 78 87 99 101 95 91 91 88 93 90 82 75 70 68 67 72
52 58 69 58 33 55 56 52 46 40 36 32 26 16 23 27 30 29 17 16 17 19 38 36 38 43 48 55 67 80 94 99 99 96 96 94 90 92 92 85 79 71 72 74
44 42 53 51 58 61 65 53 49 42 33 22 19 19 17 23 20 24 29 28 25 20 15 30 35 41 41 41 59 74 86 91 97 94 92 97 98 96 92 88 83 84 86 82
31 42 58 67 59 57 59 52 43 36 27 24 20 19 26 25 30 21 17 19 28 21 18 18 22 51 40 43 49 66 78 86 85 90 91 90 90 91 93 90 88 80 70 53
26 39 42 56 52 50 42 36 31 27 22 17 18 20 20 32 34 34 32 28 23 20 33 33 25 59 71 60 54 57 63 70 75 86 87 85 80 77 77 74 61 49 32 20
25 27 26 31 37 38 36 33 28 23 18 12 5 7 2 8 19 28 27 24 26 20 18 23 13 13 19 32 45 53 56 57 59 73 75 74 66 59 56 48 38 41 38 25
41 39 37 48 51 49 48 45 42 34 27 19 9 7 8 10 11 12 13 12 11 17 17 13 13 16 17 25 36 44 43 41 47 52 52 45 45 50 62 59 45 32 23 13
33 35 43 42 41 41 38 33 27 23 20 19 14 14 13 11 13 10 11 11 14 5 13 20 19 24 30 37 40 40 38 44 44 46 54 64 64 55 42 31 30 22 30 35
34 32 31 31 27 26 23 20 18 15 8 7 7 6 7 8 8 15 15 25 37 39 36 29 33 38 34 42 47 55 58 61 63 54 45 42 45 52 47 47 54 53 59 50
45 40 32 27 21 14 11 11 12 7 2 4 8 5 8 13 9 12 20 19 24 20 17 23 31 40 43 46 48 38 32 36 46 55 51 59 59 57 61 64 63 60 52 50
33 32 29 26 15 6 7 10 13 14 10 17 20 20 19 23 24 25 24 28 32 26 18 17 34 33 41 47 48 55 60 61 57 52 48 60 64 64 67 67 65 63 60 58
33 31 30 28 24 21 15 5 6 4 7 23 35 41 34 30 19 19 14 14 26 20 16 23 26 29 27 34 46 47 52 52 52 63 79 80 77 76 72 69 67 66 63 57
27 28 29 29 28 25 22 16 13 8 4 12 35 45 45 35 21 22 21 13 24 23 19 9 6 12 10 17 23 39 48 59 75 84 82 78 74 75 74 72 69 64 59 53
26 27 27 25 23 23 21 17 15 11 7 2 8 21 31 32 27 29 30 29 29 29 34 25 25 23 21 24 35 52 70 85 88 84 77 76 76 76 74 71 66 59 52 46
Wind_Direction_850mb
198 202 191 212 196 180 191 195 175 215 208 229 180 179 209 185 186 192 201 208 202 200 206 205 204 204 203 198 204 212 211 217 222 208 190 184 181 182 173 160 155 152 143 143
217 207 195 215 217 194 208 152 107 155 231 207 178 174 226 187 188 199 203 210 211 206 205 206 207 205 203 200 200 211 212 211 217 216 189 186 185 185 182 181 174 167 160 151
227 182 127 245 208 193 204 190 171 198 214 155 179 195 222 235 217 220 214 210 216 209 208 207 204 203 204 199 199 208 205 208 217 212 190 184 191 195 195 195 193 191 190 199
158 112 208 278 203 187 199 204 194 179 178 181 204 225 242 231 270 236 225 214 218 219 213 212 208 204 204 201 202 202 203 206 213 211 194 188 188 191 197 203 205 207 208 213
152 211 299 234 153 145 159 227 198 205 154 191 205 230 254 235 268 278 246 230 226 222 218 212 207 202 202 202 203 202 203 203 210 216 203 195 190 191 193 197 200 198 191 176
175 178 219 191 199 150 76 246 196 197 192 165 143 188 234 228 253 278 248 237 225 224 223 215 212 205 202 203 203 203 201 201 203 210 211 200 189 183 179 178 176 174 170 166
174 228 275 248 149 137 154 233 185 192 203 174 185 220 233 247 262 270 256 241 230 224 223 220 210 207 205 204 206 206 196 199 203 205 206 199 190 184 177 175 176 175 174 174
123 190 245 170 133 161 197 217 215 204 206 202 217 228 230 238 242 254 244 224 224 223 224 220 212 209 209 207 207 207 202 200 204 204 202 199 195 188 186 188 187 183 181 181
189 203 227 172 174 198 186 195 196 207 208 215 220 224 223 240 237 246 214 209 218 230 222 218 211 211 211 211 207 206 206 203 207 205 204 201 201 197 197 197 196 196 199 203
130 207 202 192 200 204 192 192 213 219 210 211 224 232 233 239 236 219 216 197 222 218 219 219 216 212 217 213 207 207 207 205 207 212 209 207 207 206 206 206 207 209 216 225
228 314 91 219 202 203 208 201 192 189 207 232 226 227 231 238 227 229 239 231 223 225 226 225 225 219 214 217 211 209 210 209 207 211 214 213 214 215 215 217 219 223 230 235
221 175 168 203 203 207 210 215 211 219 215 215 219 230 238 245 243 243 240 251 248 234 227 225 227 223 217 218 215 213 211 212 212 210 213 218 217 220 224 229 233 236 241 249
230 188 195 204 209 211 214 205 204 223 207 202 219 226 235 212 211 225 232 239 245 245 243 229 221 224 223 221 220 217 216 215 216 216 216 220 222 222 223 226 234 242 250 257
287 195 183 201 209 213 215 215 216 223 209 208 211 209 206 199 204 243 277 242 246 250 243 228 223 227 229 224 225 226 221 220 218 218 220 222 226 227 228 230 232 241 251 259
258 201 206 199 198 187 191 185 184 186 192 188 190 201 213 228 244 258 267 245 239 263 234 229 232 238 238 235 233 229 224 222 223 225 224 225 228 231 233 235 239 242 251 258
222 198 178 172 175 170 172 181 179 186 190 195 211 223 239 252 242 249 248 267 248 263 279 224 228 239 230 235 233 233 233 230 223 225 227 229 231 233 236 237 241 246 251 259
172 131 143 142 159 160 170 177 179 178 192 215 229 230 235 250 243 249 259 254 252 258 273 277 238 236 242 258 250 237 231 231 226 226 230 231 231 234 237 239 239 243 251 257
112 124 131 141 147 148 155 166 176 186 207 238 260 268 257 247 244 249 253 278 262 248 278 281 258 234 240 252 241 232 228 228 224 221 226 232 234 234 236 236 232 232 232 191
123 108 121 121 134 142 149 156 163 167 167 164 139 70 67 248 249 239 236 255 229 217 211 257 276 241 225 222 218 215 215 217 217 220 220 223 223 224 225 220 195 161 146 145
89 103 118 119 113 117 121 124 126 129 122 111 115 105 92 81 85 159 158 186 189 198 181 180 165 146 165 185 196 198 199 198 200 200 203 205 198 179 158 148 146 148 147 156
78 103 101 109 103 104 103 113 122 109 128 124 93 74 75 53 66 138 151 126 109 162 148 138 161 170 164 165 164 159 174 161 162 159 150 145 142 146 154 160 167 172 149 126
94 93 113 116 114 108 111 112 100 94 105 111 73 100 80 83 89 85 120 137 130 120 112 126 149 157 162 161 152 148 147 145 148 150 163 188 206 192 173 161 148 134 133 134
84 89 92 91 90 89 100 80 46 44 91 263 275 226 167 148 155 117 106 134 183 170 151 161 163 160 160 164 161 159 164 164 171 172 176 179 171 161 151 145 140 141 141 142
69 69 70 64 62 56 3 329 276 293 290 221 220 201 177 161 153 148 137 129 128 104 108 145 178 173 170 171 164 163 166 168 170 161 167 165 156 150 143 143 143 142 141 141
60 61 59 55 56 57 53 10 327 348 277 226 213 195 198 198 198 200 196 163 145 120 68 83 125 171 186 185 181 184 178 173 169 165 159 152 148 147 147 147 145 144 141 136
60 62 60 56 52 45 40 29 26 57 100 205 212 206 201 210 226 200 193 177 199 197 201 184 130 107 148 164 172 175 167 164 160 156 153 149 148 148 149 147 143 140 137 132
69 65 61 48 42 33 27 28 28 31 51 104 209 219 220 224 207 195 193 195 194 188 193 199 198 200 209 211 179 166 163 161 160 156 153 151 151 149 146 143 141 138 132 127